EW7774 Weather Reports


time (UTC)temp
F
wind
direction
speed
knots
gust
knots
rain 1hr
in
rain 24hr
in
rain mn
in
humidity
%
barometer
mb
20260505125025 64 0 0.0 2.6 0.00 0.00 0.00 61 1012.9
20260505124817 64 171 0.0 2.6 0.00 0.00 0.00 61 1012.6
20260505124536 63 0 0.0 3.5 0.00 0.00 0.00 62 1012.9
20260505124352 64 175 0.0 3.5 0.00 0.00 0.00 64 1012.7
20260505124026 63 0 0.0 3.5 0.00 0.00 0.00 62 1012.9
20260505123848 63 188 0.0 3.5 0.00 0.00 0.00 63 1012.6
20260505123524 62 0 0.0 0.0 0.00 0.00 0.00 66 1012.9
20260505123320 63 177 0.0 0.0 0.00 0.00 0.00 65 1012.6
20260505123042 62 0 0.0 0.0 0.00 0.00 0.00 65 1012.9
20260505122829 63 181 0.0 0.0 0.00 0.00 0.00 65 1012.6
20260505122525 62 0 0.0 0.0 0.00 0.00 0.00 64 1012.9
20260505122342 62 192 0.0 0.0 0.00 0.00 0.00 64 1012.6
20260505122025 61 0 0.0 0.0 0.00 0.00 0.00 65 1012.8
20260505121812 62 186 0.0 0.0 0.00 0.00 0.00 65 1012.5
20260505121540 61 0 0.0 0.0 0.00 0.00 0.00 66 1012.8
20260505121327 61 169 0.0 0.0 0.00 0.00 0.00 67 1012.5
20260505121026 60 0 0.0 0.0 0.00 0.00 0.00 67 1012.7
20260505120823 60 169 0.0 0.0 0.00 0.00 0.00 68 1012.4
20260505120525 59 0 0.0 0.0 0.00 0.00 0.00 70 1012.7
20260505120317 60 170 0.0 0.0 0.00 0.00 0.00 71 1012.4
20260505120038 59 0 0.0 0.0 0.00 0.00 0.00 69 1012.6
20260505115830 59 170 0.0 0.0 0.00 0.00 0.00 70 1012.5
20260505115524 58 0 0.0 0.9 0.00 0.00 0.00 71 1012.6
20260505115327 58 218 0.0 0.9 0.00 0.00 0.00 75 1012.4
20260505115025 58 0 0.0 0.9 0.00 0.00 0.00 75 1012.5
20260505114820 58 169 0.0 0.9 0.00 0.00 0.00 75 1012.3
20260505114540 57 0 0.0 1.7 0.00 0.00 0.00 73 1012.5
20260505114330 57 189 0.0 1.7 0.00 0.00 0.00 75 1012.3
20260505114028 56 0 0.0 1.7 0.00 0.00 0.00 77 1012.4
20260505113843 56 227 0.0 0.9 0.00 0.00 0.00 79 1012.3
20260505113524 56 0 0.0 0.0 0.00 0.00 0.00 79 1012.4
20260505113337 56 173 0.0 0.0 0.00 0.00 0.00 79 1012.2
20260505113049 55 0 0.0 0.0 0.00 0.00 0.00 80 1012.3
20260505112828 55 173 0.0 0.0 0.00 0.00 0.00 80 1012.2
20260505112524 54 0 0.0 0.0 0.00 0.00 0.00 81 1012.2
20260505112341 55 173 0.0 0.0 0.00 0.00 0.00 82 1012.1
20260505112024 54 0 0.0 0.0 0.00 0.00 0.00 82 1012.3
20260505111836 54 173 0.0 0.0 0.00 0.00 0.00 83 1012.1
20260505111538 54 0 0.0 0.0 0.00 0.00 0.00 83 1012.3
20260505111329 54 173 0.0 0.0 0.00 0.00 0.00 84 1012.1
20260505111026 53 0 0.0 0.0 0.00 0.00 0.00 84 1012.2
20260505110826 53 173 0.0 0.0 0.00 0.00 0.00 83 1011.9
20260505110528 53 0 0.0 0.0 0.00 0.00 0.00 85 1012.0
20260505110320 53 173 0.0 0.0 0.00 0.00 0.00 86 1011.9
20260505102025 51 0.0 0.0 0.00 0.00 0.00 85 1011.6
20260505101817 52 0.0 0.0 0.00 0.00 0.00 86 1011.5
20260505101556 51 0.0 0.0 0.00 0.00 0.00 85 1011.6
20260505101331 52 0.0 0.0 0.00 0.00 0.00 85 1011.6
20260505101025 51 0.0 0.0 0.00 0.00 0.00 85 1011.6
20260505100845 52 0.0 0.0 0.00 0.00 0.00 85 1011.6
20260505100525 51 0.0 0.0 0.00 0.00 0.00 85 1011.6
20260505100356 52 0.0 0.0 0.00 0.00 0.00 85 1011.6
20260505100057 51 0.0 0.0 0.00 0.00 0.00 84 1011.6
20260505095817 52 0.0 0.0 0.00 0.00 0.00 85 1011.5
20260505095527 51 0.0 0.0 0.00 0.00 0.00 84 1011.5
20260505095331 52 0.0 0.0 0.00 0.00 0.00 84 1011.4
20260505095024 52 0.0 0.0 0.00 0.00 0.00 84 1011.5
20260505094847 52 0.0 0.0 0.00 0.00 0.00 84 1011.4
20260505094544 52 0.0 0.0 0.00 0.00 0.00 84 1011.4
20260505094322 52 0.0 0.0 0.00 0.00 0.00 84 1011.4
20260505094025 52 0.0 0.0 0.00 0.00 0.00 83 1011.4
20260505093856 52 0.0 0.0 0.00 0.00 0.00 83 1011.4
20260505093524 52 0.0 0.0 0.00 0.00 0.00 83 1011.4
20260505093349 53 0.0 0.0 0.00 0.00 0.00 83 1011.4
20260505093044 52 0.0 0.0 0.00 0.00 0.00 83 1011.3
20260505092822 53 0.0 0.0 0.00 0.00 0.00 83 1011.3
20260505092525 52 0.0 0.0 0.00 0.00 0.00 83 1011.3
20260505092321 53 0.0 0.0 0.00 0.00 0.00 83 1011.3
20260505092024 52 0.0 0.0 0.00 0.00 0.00 82 1011.3
20260505091838 53 0.0 0.0 0.00 0.00 0.00 83 1011.3
20260505091539 52 0.0 0.0 0.00 0.00 0.00 83 1011.3
20260505091332 53 0.0 0.0 0.00 0.00 0.00 83 1011.2
20260505091024 53 0.0 0.0 0.00 0.00 0.00 82 1011.2
20260505090829 53 0.0 0.0 0.00 0.00 0.00 83 1011.2
20260505090525 53 0.0 0.0 0.00 0.00 0.00 83 1011.2
20260505090322 53 0.0 0.0 0.00 0.00 0.00 83 1011.1
20260505090037 53 0.0 0.0 0.00 0.00 0.00 82 1011.1
20260505085817 53 0.0 0.0 0.00 0.00 0.00 83 1011.1
20260505085525 53 0.0 0.0 0.00 0.00 0.00 83 1011.1
20260505085330 53 0.0 0.0 0.00 0.00 0.00 83 1011.0
20260505085025 53 0.0 0.0 0.00 0.00 0.00 83 1011.1
20260505084824 53 0.0 0.0 0.00 0.00 0.00 84 1011.1
20260505084538 53 0.0 0.0 0.00 0.00 0.00 83 1011.2
20260505084318 53 0.0 0.0 0.00 0.00 0.00 84 1011.3
20260505084024 53 0.0 0.0 0.00 0.00 0.00 83 1011.3
20260505083813 53 0.0 0.0 0.00 0.00 0.00 84 1011.2
20260505083526 53 0.0 0.0 0.00 0.00 0.00 83 1011.3
20260505083330 53 0.0 0.0 0.00 0.00 0.00 83 1011.1
20260505083037 53 0.0 0.0 0.00 0.00 0.00 83 1011.2
20260505082827 53 0.0 0.0 0.00 0.00 0.00 84 1011.2
20260505082525 53 0.0 0.0 0.00 0.00 0.00 83 1011.3
20260505082344 53 0.0 0.0 0.00 0.00 0.00 83 1011.2
20260505082025 53 0.0 0.0 0.00 0.00 0.00 83 1011.3
20260505081819 53 0.0 0.0 0.00 0.00 0.00 83 1011.1
20260505081556 53 0.0 0.0 0.00 0.00 0.00 83 1011.2
20260505081337 53 0.0 0.0 0.00 0.00 0.00 83 1011.1
20260505081026 53 0.0 0.0 0.00 0.00 0.00 83 1011.2
20260505080829 53 0.0 0.0 0.00 0.00 0.00 83 1011.0
20260505080525 53 0.0 0.0 0.00 0.00 0.00 83 1011.1
20260505080323 53 0.0 0.0 0.00 0.00 0.00 83 1010.9
20260505080053 53 0.0 0.0 0.00 0.00 0.00 83 1011.1
20260505075820 53 0.0 0.0 0.00 0.00 0.00 83 1010.9
20260505075525 53 0.0 0.0 0.00 0.00 0.00 83 1011.1
20260505075337 53 0.0 0.0 0.00 0.00 0.00 83 1010.9
20260505075025 53 0.0 0.0 0.00 0.00 0.00 83 1011.1
20260505074813 53 0.0 0.0 0.00 0.00 0.00 84 1011.0
20260505074539 53 0.0 0.0 0.00 0.00 0.00 83 1011.2
20260505074328 53 0.0 0.0 0.00 0.00 0.00 84 1011.0
20260505074025 53 0.0 0.0 0.00 0.00 0.00 83 1011.1
20260505073825 53 0.0 0.0 0.00 0.00 0.00 84 1010.9
20260505073525 53 0.0 0.0 0.00 0.00 0.00 83 1011.1
20260505073342 53 0.0 0.0 0.00 0.00 0.00 84 1010.9
20260505073045 53 0.0 0.0 0.00 0.00 0.00 84 1011.0
20260505072821 53 0.0 0.0 0.00 0.00 0.00 84 1010.8
20260505072521 53 0.0 0.0 0.00 0.00 0.00 83 1011.0
20260505072338 53 0.0 0.0 0.00 0.00 0.00 84 1010.8
20260505072022 53 0.0 0.0 0.00 0.00 0.00 84 1010.9
20260505071834 53 0.0 0.0 0.00 0.00 0.00 84 1010.7
20260505071548 53 0.0 0.0 0.00 0.00 0.00 83 1010.9
20260505071331 53 0.0 0.0 0.00 0.00 0.00 84 1010.6
20260505071023 53 0.0 0.0 0.00 0.00 0.00 83 1010.9
20260505070847 53 0.0 0.0 0.00 0.00 0.00 83 1010.7
20260505070526 53 0.0 0.0 0.00 0.00 0.00 83 1011.0
20260505070320 53 0.0 0.0 0.00 0.00 0.00 83 1010.7
20260505070038 53 0.0 0.0 0.00 0.00 0.00 82 1011.0
20260505065833 54 0.0 0.0 0.00 0.00 0.00 83 1010.7
20260505065523 53 0.0 0.0 0.00 0.00 0.00 82 1011.0
20260505065347 54 0.0 0.0 0.00 0.00 0.00 82 1010.6
20260505065024 53 0.0 0.0 0.00 0.00 0.00 82 1011.0
20260505064820 54 0.0 0.0 0.00 0.00 0.00 82 1010.6
20260505064538 53 0.0 0.0 0.00 0.00 0.00 81 1011.0
20260505064354 54 0.0 0.0 0.00 0.00 0.00 82 1010.6
20260505064025 54 0.0 0.0 0.00 0.00 0.00 81 1011.0
20260505063847 54 0.0 0.0 0.00 0.00 0.00 82 1010.6
20260505063525 54 0.0 0.0 0.00 0.00 0.00 81 1011.0
20260505063340 54 0.0 0.0 0.00 0.00 0.00 82 1010.6
20260505063048 54 0.0 0.0 0.00 0.00 0.00 81 1011.0
20260505062834 54 0.0 0.0 0.00 0.00 0.00 82 1010.6
20260505062525 54 0.0 0.0 0.00 0.00 0.00 81 1011.1
20260505062328 54 0.0 0.0 0.00 0.00 0.00 82 1010.6
20260505062025 54 0.0 0.0 0.00 0.00 0.00 81 1011.1
20260505061844 54 0.0 0.0 0.00 0.00 0.00 81 1010.6
20260505061541 54 0.0 0.0 0.00 0.00 0.00 81 1011.1
20260505061317 54 0.0 0.0 0.00 0.00 0.00 81 1010.6
20260505061022 54 0.0 0.0 0.00 0.00 0.00 81 1011.1
20260505060834 54 0.0 0.0 0.00 0.00 0.00 81 1010.6
20260505060523 54 0.0 0.0 0.00 0.00 0.00 80 1011.1
20260505060327 55 0.0 0.0 0.00 0.00 0.00 80 1010.6
20260505060038 54 0.0 0.0 0.00 0.00 0.00 79 1011.1
20260505055840 55 0.0 0.0 0.00 0.00 0.00 80 1010.6
20260505055522 54 0.0 0.0 0.00 0.00 0.00 79 1011.1
20260505055316 55 0.0 0.0 0.00 0.00 0.00 79 1010.6
20260505055025 55 0.0 0.0 0.00 0.00 0.00 78 1011.0
20260505054830 55 0.0 0.0 0.00 0.00 0.00 79 1010.5
20260505054544 55 0.0 0.0 0.00 0.00 0.00 79 1011.1
20260505054327 55 0.0 0.0 0.00 0.00 0.00 79 1010.5
20260505054026 55 0.0 0.0 0.00 0.00 0.00 78 1011.1
20260505053821 55 0.0 0.0 0.00 0.00 0.00 78 1010.5
20260505053522 55 0.0 0.0 0.00 0.00 0.00 78 1011.0
20260505053317 56 0.0 0.0 0.00 0.00 0.00 78 1010.5
20260505053043 55 0.0 0.0 0.00 0.00 0.00 78 1011.1
20260505052831 56 0.0 0.0 0.00 0.00 0.00 78 1010.6
20260505052526 55 0.0 0.0 0.00 0.00 0.00 77 1011.1
20260505052327 56 0.0 0.0 0.00 0.00 0.00 77 1010.6
20260505052028 55 0.0 0.0 0.00 0.00 0.00 76 1011.1
20260505051823 56 0.0 0.0 0.00 0.00 0.00 77 1010.6
20260505051541 56 0.0 0.0 0.00 0.00 0.00 76 1011.2
20260505051319 56 0.0 0.0 0.00 0.00 0.00 76 1010.6
20260505051024 56 0.0 0.0 0.00 0.00 0.00 76 1011.2
20260505050815 56 0.0 0.0 0.00 0.00 0.00 76 1010.7
20260505050525 56 0.0 0.0 0.00 0.00 0.00 75 1011.2
20260505050315 56 0.0 0.0 0.00 0.00 0.00 76 1010.7
20260505041537 57 0.0 0.0 0.00 0.00 0.00 71 1011.3
20260505041352 58 0.0 0.0 0.00 0.00 0.00 71 1010.7
20260505041025 58 0.0 0.0 0.00 0.00 0.00 71 1011.2
20260505040826 58 0.0 0.0 0.00 0.00 0.00 71 1010.6
20260505040525 58 0.0 0.0 0.00 0.00 0.00 70 1011.2
20260505040323 58 0.0 0.0 0.00 0.00 0.00 70 1010.6
20260505040043 58 0.0 0.0 0.00 0.00 0.00 69 1011.2
20260505035817 59 0.0 0.0 0.00 0.00 0.00 70 1010.5
20260505035525 58 0.0 0.0 0.00 0.00 0.00 69 1011.1
20260505035329 59 0.0 0.0 0.00 0.00 0.00 69 1010.5
20260505035025 59 0.0 0.0 0.00 0.00 0.00 68 1011.1
20260505034822 59 0.0 0.0 0.00 0.00 0.00 68 1010.5
20260505034546 59 0.0 0.0 0.00 0.00 0.00 68 1011.1
20260505034318 60 0.0 0.0 0.00 0.00 0.00 68 1010.5
20260505034025 59 0.0 0.0 0.00 0.00 0.00 67 1011.1
20260505033816 60 0.0 0.0 0.00 0.00 0.00 67 1010.5
20260505033525 59 0.0 0.0 0.00 0.00 0.00 66 1011.2
20260505033315 60 0.0 0.0 0.00 0.00 0.00 67 1010.5
20260505033038 60 0.0 0.0 0.00 0.00 0.00 66 1011.1
20260505032833 60 0.0 0.0 0.00 0.00 0.00 66 1010.4
20260505032525 60 0.0 0.0 0.00 0.00 0.00 65 1011.2
20260505032346 61 0.0 0.0 0.00 0.00 0.00 66 1010.5
20260505032024 60 0.0 0.0 0.00 0.00 0.00 64 1011.2
20260505031818 61 0.0 0.0 0.00 0.00 0.00 64 1010.5
20260505031543 61 0.0 0.0 0.00 0.00 0.00 63 1011.1
20260505031332 61 0.0 0.0 0.00 0.00 0.00 64 1010.5
20260505031027 61 0.0 0.0 0.00 0.00 0.00 63 1011.1
20260505030821 61 0.0 0.0 0.00 0.00 0.00 63 1010.5
20260505030525 61 0.0 0.0 0.00 0.00 0.00 63 1011.1
20260505030330 62 0.0 0.0 0.00 0.00 0.00 63 1010.5
20260505030044 61 0.0 0.0 0.00 0.00 0.00 62 1011.1
20260505025823 62 0.0 0.0 0.00 0.00 0.00 63 1010.5
20260505025526 61 0.0 0.0 0.00 0.00 0.00 63 1011.0
20260505025316 62 0.0 0.0 0.00 0.00 0.00 62 1010.4
20260505025026 62 0.0 0.0 0.00 0.00 0.00 61 1011.0
20260505024828 62 0.0 0.0 0.00 0.00 0.00 62 1010.4
20260505024544 62 0.0 0.0 0.00 0.00 0.00 62 1010.9
20260505024319 62 0.0 0.0 0.00 0.00 0.00 61 1010.3
20260505024026 62 0.0 0.0 0.00 0.00 0.00 60 1011.0
20260505023853 62 0.0 0.0 0.00 0.00 0.00 61 1010.4
20260505023525 62 0.0 0.0 0.00 0.00 0.00 60 1011.0
20260505023329 63 0.0 0.0 0.00 0.00 0.00 61 1010.4
20260505023037 62 0.0 0.0 0.00 0.00 0.00 60 1011.0
20260505022824 63 0.0 0.0 0.00 0.00 0.00 60 1010.4
20260505022525 62 0.0 0.0 0.00 0.00 0.00 60 1011.0
20260505022317 63 0.0 0.0 0.00 0.00 0.00 60 1010.4
20260505022025 62 0.0 0.0 0.00 0.00 0.00 60 1010.9
20260505021833 63 0.0 0.0 0.00 0.00 0.00 60 1010.4
20260505021541 62 0.0 0.0 0.00 0.00 0.00 60 1011.0
20260505021328 63 0.0 0.0 0.00 0.00 0.00 60 1010.4
20260505021025 62 0.0 0.0 0.00 0.00 0.00 60 1011.0
20260505020822 63 0.0 0.0 0.00 0.00 0.00 61 1010.3
20260505020526 63 0.0 0.0 0.00 0.00 0.00 60 1010.8
20260505020313 63 0.0 0.0 0.00 0.00 0.00 60 1010.3
20260505020039 63 0.0 0.0 0.00 0.00 0.00 59 1010.7
20260505015826 64 0.0 0.0 0.00 0.00 0.00 59 1010.1
20260505015525 63 0.0 0.0 0.00 0.00 0.00 58 1010.6
20260505015346 64 0.0 0.0 0.00 0.00 0.00 58 1010.2
20260505015025 64 0.0 0.0 0.00 0.00 0.00 57 1010.7
20260505014835 64 0.0 0.0 0.00 0.00 0.00 57 1010.2
20260505014539 64 0.0 0.0 0.00 0.00 0.00 57 1010.7
20260505014329 65 0.0 0.0 0.00 0.00 0.00 56 1010.2
20260505014024 64 0.0 0.0 0.00 0.00 0.00 56 1010.7
20260505013822 65 0.0 0.0 0.00 0.00 0.00 56 1010.1
20260505013524 65 0.0 0.0 0.00 0.00 0.00 55 1010.6
20260505013330 65 0.0 0.0 0.00 0.00 0.00 55 1010.1
20260505013037 65 0.0 0.0 0.00 0.00 0.00 54 1010.6
20260505012829 66 0.0 0.0 0.00 0.00 0.00 54 1010.0
20260505012525 65 0.0 0.0 0.00 0.00 0.00 54 1010.4
20260505012332 66 0.0 0.0 0.00 0.00 0.00 54 1010.0
20260505012025 66 0.0 0.0 0.00 0.00 0.00 53 1010.4
20260505011830 66 0.0 0.0 0.00 0.00 0.00 53 1009.9
20260505011541 66 0.0 0.0 0.00 0.00 0.00 52 1010.4
20260505011350 67 0.0 0.0 0.00 0.00 0.00 52 1009.9
20260505011027 66 0.0 0.0 0.00 0.00 0.00 52 1010.3
20260505010827 67 0.0 0.0 0.00 0.00 0.00 52 1009.8
20260505010525 67 0.0 0.0 0.00 0.00 0.00 51 1010.2
20260505010345 67 0.0 0.0 0.00 0.00 0.00 51 1009.7
20260505005821 68 0.0 0.0 0.00 0.00 0.00 50 1009.7
20260505005525 67 0.0 0.0 0.00 0.00 0.00 50 1010.2
20260505005317 68 0.0 0.0 0.00 0.00 0.00 50 1009.8
20260505005026 68 0.0 0.0 0.00 0.00 0.00 50 1010.2
20260505004817 68 0.0 0.0 0.00 0.00 0.00 50 1009.7
20260505004540 68 0.0 0.0 0.00 0.00 0.00 49 1010.1
20260505004316 69 0.0 0.0 0.00 0.00 0.00 49 1009.7
20260505004026 69 0.0 0.0 0.00 0.00 0.00 49 1010.1
20260505003835 69 0.0 0.0 0.00 0.00 0.00 49 1009.6
20260505003524 69 0.0 0.0 0.00 0.00 0.00 47 1010.1
20260505003331 70 0.0 0.0 0.00 0.00 0.00 48 1009.6
20260505003042 69 0.0 0.0 0.00 0.00 0.00 46 1010.1
20260505002827 70 0.0 0.0 0.00 0.00 0.00 47 1009.6
20260505002524 70 0.0 0.0 0.00 0.00 0.00 46 1010.0
20260505002324 71 0.0 0.0 0.00 0.00 0.00 47 1009.6
20260505002026 70 0.0 0.0 0.00 0.00 0.00 47 1010.1
20260505001817 71 0.0 0.0 0.00 0.00 0.00 47 1009.6
20260505001544 70 0.0 0.0 0.00 0.00 0.00 45 1010.0
20260505001334 71 0.0 0.0 0.00 0.00 0.00 47 1009.5
20260505001025 71 0.0 0.0 0.00 0.00 0.00 45 1009.9
20260505000828 71 0.0 0.0 0.00 0.00 0.00 45 1009.6
20260505000525 71 0.0 0.0 0.00 0.00 0.00 44 1010.0
20260505000324 71 0.0 0.0 0.00 0.00 0.00 44 1009.6
20260505000048 71 0.0 0.0 0.00 0.00 0.00 45 1010.0
20260504235820 71 0.0 0.0 0.00 0.00 0.00 45 1009.5
20260504235526 71 0.0 0.0 0.00 0.00 0.00 44 1009.9
20260504235334 71 0.0 0.0 0.00 0.00 0.00 43 1009.6
20260504235025 71 0.0 0.0 0.00 0.00 0.00 43 1009.9
20260504234829 72 0.0 0.0 0.00 0.00 0.00 43 1009.5
20260504234540 71 0.0 0.0 0.00 0.00 0.00 42 1010.0
20260504234322 72 0.0 0.0 0.00 0.00 0.00 45 1009.5
20260504234026 71 0.0 0.0 0.00 0.00 0.00 42 1009.9
20260504233835 72 0.0 0.0 0.00 0.00 0.00 42 1009.5
20260504233525 71 0.0 0.0 0.00 0.00 0.00 44 1009.8
20260504233040 72 0.0 2.6 0.00 0.00 0.00 43 1009.7
20260504232828 72 175 0.0 2.6 0.00 0.00 0.00 44 1009.4
20260504232525 72 0 0.0 2.6 0.00 0.00 0.00 43 1009.8
20260504232321 72 175 0.9 2.6 0.00 0.00 0.00 42 1009.4
20260504232025 72 0 0.0 4.3 0.00 0.00 0.00 42 1009.8
20260504231830 73 181 0.9 4.3 0.00 0.00 0.00 40 1009.4
20260504231544 72 0 0.0 8.7 0.00 0.00 0.00 40 1009.7
20260504231316 73 179 0.9 7.8 0.00 0.00 0.00 42 1009.4
20260504231025 72 0 0.0 8.7 0.00 0.00 0.00 40 1009.7
20260504230828 73 194 0.9 7.8 0.00 0.00 0.00 41 1009.4
20260504230526 72 0 0.9 8.7 0.00 0.00 0.00 40 1009.6
20260504230338 73 233 0.9 7.0 0.00 0.00 0.00 40 1009.2
20260504230047 73 0 0.9 7.8 0.00 0.00 0.00 41 1009.7
20260504225833 73 310 0.9 7.0 0.00 0.00 0.00 39 1009.4
20260504225525 73 248 0.0 4.3 0.00 0.00 0.00 40 1009.6
20260504225323 73 162 0.9 4.3 0.00 0.00 0.00 41 1009.2
20260504225025 73 209 0.0 4.3 0.00 0.00 0.00 39 1009.6
20260504224817 73 291 0.0 4.3 0.00 0.00 0.00 39 1009.3
20260504224543 73 0 0.0 6.1 0.00 0.00 0.00 39 1009.6
20260504224329 73 200 0.9 5.2 0.00 0.00 0.00 40 1009.4
20260504224025 73 0 0.0 7.0 0.00 0.00 0.00 39 1009.7
20260504223822 73 204 0.9 6.1 0.00 0.00 0.00 41 1009.3
20260504223525 73 0 0.0 7.0 0.00 0.00 0.00 38 1009.7
20260504223335 73 192 0.0 6.1 0.00 0.00 0.00 39 1009.4
20260504223045 73 0 0.0 10.4 0.00 0.00 0.00 39 1009.7
20260504222847 73 223 0.9 9.6 0.00 0.00 0.00 39 1009.4
20260504222524 73 0 0.0 10.4 0.00 0.00 0.00 39 1009.7
20260504222316 74 181 0.0 9.6 0.00 0.00 0.00 40 1009.3
20260504222025 73 203 1.7 11.3 0.00 0.00 0.00 39 1009.6
20260504221847 74 186 2.6 10.4 0.00 0.00 0.00 40 1009.1
20260504221554 73 152 0.9 11.3 0.00 0.00 0.00 39 1009.4
20260504221319 74 141 1.7 10.4 0.00 0.00 0.00 39 1009.0
20260504221025 74 0 0.9 9.6 0.00 0.00 0.00 38 1009.5
20260504220831 74 163 1.7 8.7 0.00 0.00 0.00 38 1009.2
20260504220528 74 0 1.7 11.3 0.00 0.00 0.00 39 1009.6
20260504220322 74 202 2.6 10.4 0.00 0.00 0.00 39 1009.2
20260504220044 74 203 1.7 11.3 0.00 0.00 0.00 37 1009.5
20260504215838 75 181 3.5 10.4 0.00 0.00 0.00 38 1009.1
20260504215526 74 193 1.7 11.3 0.00 0.00 0.00 37 1009.6
20260504215351 75 188 0.9 10.4 0.00 0.00 0.00 37 1009.1
20260504215025 74 197 0.9 11.3 0.00 0.00 0.00 37 1009.5
20260504214822 75 188 0.9 10.4 0.00 0.00 0.00 37 1009.1
20260504214537 74 0 1.7 11.3 0.00 0.00 0.00 36 1009.5
20260504214335 75 179 1.7 10.4 0.00 0.00 0.00 37 1009.1
20260504214022 75 201 0.9 6.1 0.00 0.00 0.00 36 1009.4
20260504213827 75 274 1.7 5.2 0.00 0.00 0.00 36 1009.1
20260504213525 74 214 0.0 7.0 0.00 0.00 0.00 36 1009.5
20260504213318 75 217 0.0 6.1 0.00 0.00 0.00 37 1009.1
20260504213052 74 0 0.9 7.8 0.00 0.00 0.00 38 1009.5
20260504212830 75 223 0.9 6.1 0.00 0.00 0.00 39 1009.2
20260504212525 74 0 0.9 7.8 0.00 0.00 0.00 37 1009.5
20260504212321 75 165 0.9 7.8 0.00 0.00 0.00 39 1009.0
20260504212025 74 0 0.0 7.8 0.00 0.00 0.00 37 1009.5
20260504211816 75 317 0.9 7.0 0.00 0.00 0.00 39 1009.0
20260504211544 74 0 0.9 7.8 0.00 0.00 0.00 37 1009.5
20260504211327 75 232 0.9 7.0 0.00 0.00 0.00 38 1009.1
20260504211022 74 0 0.0 2.6 0.00 0.00 0.00 38 1009.7
20260504210816 75 157 0.0 2.6 0.00 0.00 0.00 39 1009.2
20260504210525 74 0 0.0 11.3 0.00 0.00 0.00 37 1009.5
20260504210328 75 352 0.0 9.6 0.00 0.00 0.00 36 1009.2
20260504210038 74 0 0.0 11.3 0.00 0.00 0.00 36 1009.7
20260504205820 75 202 0.9 10.4 0.00 0.00 0.00 37 1009.1
20260504205523 75 276 1.7 11.3 0.00 0.00 0.00 37 1009.7
20260504205335 75 165 0.0 7.0 0.00 0.00 0.00 40 1009.2
20260504205025 75 0 0.9 7.8 0.00 0.00 0.00 37 1009.5
20260504204848 75 160 0.0 7.0 0.00 0.00 0.00 37 1009.1
20260504204537 74 238 1.7 7.8 0.00 0.00 0.00 38 1009.6
20260504204317 75 206 1.7 6.1 0.00 0.00 0.00 37 1009.2
20260504204023 74 209 0.0 3.5 0.00 0.00 0.00 37 1009.6
20260504203830 75 160 0.9 6.1 0.00 0.00 0.00 42 1009.2
20260504203524 74 0 0.0 7.8 0.00 0.00 0.00 38 1009.7
20260504203346 75 212 0.0 7.0 0.00 0.00 0.00 37 1009.2
20260504203049 74 0 0.9 7.8 0.00 0.00 0.00 35 1009.7
20260504202816 75 235 0.9 7.8 0.00 0.00 0.00 39 1009.4
20260504202523 74 240 0.0 9.6 0.00 0.00 0.00 38 1009.8
20260504202331 75 223 0.9 8.7 0.00 0.00 0.00 36 1009.4
20260504202022 74 230 0.9 9.6 0.00 0.00 0.00 36 1009.9
20260504201821 75 150 1.7 8.7 0.00 0.00 0.00 37 1009.5
20260504201540 74 0 0.9 7.0 0.00 0.00 0.00 37 1009.9
20260504201333 75 155 1.7 5.2 0.00 0.00 0.00 38 1009.6
20260504201023 75 0 0.0 7.0 0.00 0.00 0.00 36 1010.2
20260504200818 75 177 0.0 6.1 0.00 0.00 0.00 37 1009.8
20260504200526 74 0 0.0 7.0 0.00 0.00 0.00 37 1010.2
20260504200327 75 235 0.0 3.5 0.00 0.00 0.00 38 1009.8
20260504200038 74 259 0.0 5.2 0.00 0.00 0.00 36 1010.2
20260504195815 74 173 0.9 4.3 0.00 0.00 0.00 37 1009.7
20260504195522 74 0 0.0 7.0 0.00 0.00 0.00 36 1010.2
20260504195332 74 182 0.0 5.2 0.00 0.00 0.00 38 1009.8
20260504195022 74 0 0.9 7.0 0.00 0.00 0.00 36 1010.2
20260504194826 74 177 0.9 6.1 0.00 0.00 0.00 40 1009.9
20260504194543 73 190 0.9 7.0 0.00 0.00 0.00 37 1010.3
20260504194319 74 265 0.0 3.5 0.00 0.00 0.00 38 1009.9
20260504194026 73 286 0.0 6.1 0.00 0.00 0.00 36 1010.4
20260504193832 74 173 0.9 5.2 0.00 0.00 0.00 36 1010.0
20260504193527 73 213 0.0 6.1 0.00 0.00 0.00 37 1010.5
20260504193346 74 173 1.7 5.2 0.00 0.00 0.00 38 1010.1
20260504193037 73 220 0.0 8.7 0.00 0.00 0.00 36 1010.6
20260504192821 73 197 0.9 7.8 0.00 0.00 0.00 36 1010.2
20260504192525 73 0 0.0 10.4 0.00 0.00 0.00 36 1010.7
20260504192315 73 192 0.9 9.6 0.00 0.00 0.00 36 1010.3
20260504192028 73 0 0.0 10.4 0.00 0.00 0.00 36 1010.8
20260504191849 74 173 0.0 9.6 0.00 0.00 0.00 37 1010.4
20260504191543 73 162 1.7 6.1 0.00 0.00 0.00 39 1011.1
20260504191320 73 183 0.0 5.2 0.00 0.00 0.00 38 1010.6
20260504191025 73 0 0.0 5.2 0.00 0.00 0.00 36 1011.0
20260504190834 73 21 0.9 5.2 0.00 0.00 0.00 37 1010.6
20260504190525 73 234 0.0 7.0 0.00 0.00 0.00 37 1011.1
20260504190327 73 140 0.9 7.0 0.00 0.00 0.00 37 1010.7
20260504190038 73 45 0.9 10.4 0.00 0.00 0.00 37 1011.3
20260504185840 73 198 2.6 10.4 0.00 0.00 0.00 37 1010.8
20260504185522 73 252 0.9 10.4 0.00 0.00 0.00 36 1011.4
20260504185316 73 240 2.6 10.4 0.00 0.00 0.00 38 1010.9
20260504185025 73 0 0.0 6.1 0.00 0.00 0.00 39 1011.4
20260504184815 73 173 0.9 5.2 0.00 0.00 0.00 39 1011.0
20260504184537 72 0 0.0 10.4 0.00 0.00 0.00 38 1011.5
20260504184331 73 175 0.9 6.1 0.00 0.00 0.00 39 1011.1
20260504184030 72 0 0.0 10.4 0.00 0.00 0.00 41 1011.5
20260504183824 73 190 0.9 9.6 0.00 0.00 0.00 39 1011.2
20260504183526 72 0 1.7 10.4 0.00 0.00 0.00 41 1011.6
20260504183337 73 208 0.9 7.0 0.00 0.00 0.00 39 1011.2
20260504183036 72 211 0.0 7.8 0.00 0.00 0.00 38 1011.6
20260504182828 72 15 0.9 7.0 0.00 0.00 0.00 41 1011.3
20260504182526 72 0 0.0 7.8 0.00 0.00 0.00 38 1011.7
20260504182322 72 212 0.9 7.0 0.00 0.00 0.00 38 1011.4
20260504182025 72 291 0.9 7.0 0.00 0.00 0.00 40 1011.9
20260504181814 72 165 0.9 6.1 0.00 0.00 0.00 42 1011.6
20260504181538 72 0 0.9 7.0 0.00 0.00 0.00 37 1011.8
20260504181330 72 320 0.9 5.2 0.00 0.00 0.00 38 1011.6
20260504181027 72 0 0.0 7.8 0.00 0.00 0.00 37 1012.0
20260504180843 72 196 0.9 7.0 0.00 0.00 0.00 38 1011.7
20260504180526 72 0 0.0 7.8 0.00 0.00 0.00 39 1012.0
20260504180316 72 192 0.9 7.0 0.00 0.00 0.00 39 1011.8
20260504180048 72 164 0.0 7.8 0.00 0.00 0.00 41 1012.1
20260504175850 72 165 0.9 6.1 0.00 0.00 0.00 40 1011.8
20260504175528 71 208 0.9 7.8 0.00 0.00 0.00 46 1012.1
20260504175323 72 256 0.0 7.8 0.00 0.00 0.00 38 1011.9
20260504175025 71 0 2.6 7.8 0.00 0.00 0.00 39 1012.2
20260504174835 72 177 4.3 7.8 0.00 0.00 0.00 41 1011.9
20260504174543 71 220 0.9 7.8 0.00 0.00 0.00 38 1012.2
20260504174330 72 171 1.7 6.1 0.00 0.00 0.00 39 1012.0
20260504174025 71 0 0.9 7.0 0.00 0.00 0.00 38 1012.2
20260504173846 71 196 1.7 6.1 0.00 0.00 0.00 45 1012.1
20260504173525 71 199 0.9 9.6 0.00 0.00 0.00 40 1012.3
20260504173317 71 25 0.9 9.6 0.00 0.00 0.00 40 1012.1
20260504173037 71 256 0.9 10.4 0.00 0.00 0.00 39 1012.4
20260504172829 72 148 2.6 9.6 0.00 0.00 0.00 41 1012.2
20260504172524 71 181 0.9 10.4 0.00 0.00 0.00 42 1012.4
20260504172322 71 163 0.0 4.3 0.00 0.00 0.00 40 1012.2
20260504172025 71 0 0.0 7.8 0.00 0.00 0.00 37 1012.4
20260504171813 72 296 0.0 7.0 0.00 0.00 0.00 37 1012.2
20260504171539 71 0 0.9 7.8 0.00 0.00 0.00 37 1012.5
20260504171329 72 187 1.7 7.0 0.00 0.00 0.00 41 1012.3
20260504171026 72 304 0.9 7.8 0.00 0.00 0.00 37 1012.7
20260504170821 72 207 0.9 4.3 0.00 0.00 0.00 39 1012.4
20260504170525 71 242 0.0 8.7 0.00 0.00 0.00 37 1012.8
20260504170335 72 100 0.9 7.8 0.00 0.00 0.00 38 1012.6
20260504160323 70 171 0.9 5.2 0.00 0.00 0.00 36 1013.2
20260504151025 67 0 0.0 6.1 0.00 0.00 0.00 40 1014.2
20260504150824 67 192 0.0 5.2 0.00 0.00 0.00 38 1013.9
20260504150525 66 0 0.9 6.1 0.00 0.00 0.00 40 1014.2
20260504150317 67 349 0.9 2.6 0.00 0.00 0.00 42 1013.8
20260504141028 61 0 0.0 4.3 0.00 0.00 0.00 46 1014.4
20260504140817 61 216 0.0 4.3 0.00 0.00 0.00 48 1014.0
20260504140525 61 197 0.0 4.3 0.00 0.00 0.00 50 1014.3
20260504140313 61 165 0.0 4.3 0.00 0.00 0.00 49 1014.0
20260504130525 55 0 0.0 2.6 0.00 0.00 0.00 59 1014.8
20260504130340 55 169 0.0 3.5 0.00 0.00 0.00 62 1014.6